Temp
10 11 11 11 11 11 11 11 10 11 12 14 14 13 11 9 7 4 2 0 -1 -2 -3 -4 -4 -4 -3 -2 -2 -2 -2 -2 -2 -3 -3 -4 -4 -4 -5 -6 -6 -6 -6 -7
9 10 10 10 11 11 11 11 12 12 12 14 12 9 8 7 5 3 1 -1 -3 -4 -4 -5 -5 -4 -3 -2 -2 -3 -3 -3 -3 -3 -3 -4 -4 -4 -5 -7 -6 -6 -5 -6
6 9 8 8 10 11 12 13 12 10 12 13 11 8 7 5 3 2 -1 -3 -4 -5 -5 -6 -4 -4 -4 -3 -4 -3 -3 -3 -3 -3 -4 -4 -4 -4 -5 -6 -6 -5 -4 -4
7 8 6 11 11 10 10 12 12 12 12 10 8 5 3 3 2 -0 -2 -4 -5 -6 -7 -5 -5 -5 -4 -4 -4 -4 -4 -4 -4 -4 -4 -4 -5 -5 -5 -6 -7 -6 -5 -5
5 7 9 10 10 6 6 10 11 9 10 5 2 1 -1 -1 -1 -3 -5 -5 -5 -5 -5 -6 -6 -5 -5 -5 -5 -5 -4 -5 -4 -5 -4 -5 -5 -5 -6 -8 -8 -7 -7 -6
6 6 6 9 8 7 7 7 10 8 7 3 2 5 4 -3 -4 -5 -5 -5 -5 -6 -6 -6 -6 -6 -6 -5 -5 -5 -5 -5 -5 -5 -5 -5 -6 -7 -8 -9 -9 -9 -8 -7
6 5 8 11 7 6 6 8 5 6 4 2 3 1 -2 -5 -5 -5 -5 -6 -7 -7 -7 -6 -6 -7 -6 -6 -5 -6 -6 -6 -6 -6 -6 -6 -7 -7 -8 -9 -10 -10 -9 -8
5 5 6 6 4 6 5 3 3 3 2 1 -2 -3 -5 -6 -6 -7 -7 -8 -8 -7 -7 -7 -7 -7 -6 -6 -6 -6 -7 -6 -6 -6 -7 -8 -10 -10 -10 -11 -12 -12 -12 -11
7 8 4 4 2 2 2 3 2 2 0 -0 -3 -5 -6 -7 -7 -8 -8 -8 -8 -8 -8 -8 -8 -7 -7 -7 -7 -7 -7 -7 -7 -7 -8 -11 -12 -12 -11 -12 -12 -12 -12 -13
5 6 4 3 0 0 1 1 -0 -1 -1 -3 -4 -6 -6 -7 -7 -8 -8 -8 -8 -8 -9 -9 -9 -8 -8 -7 -7 -7 -7 -8 -8 -8 -9 -12 -12 -12 -13 -13 -12 -13 -13 -13
5 2 -1 -1 1 0 -1 -2 -1 -1 -2 -3 -4 -6 -7 -7 -7 -7 -8 -8 -8 -8 -8 -9 -9 -9 -8 -8 -9 -8 -8 -9 -10 -10 -12 -13 -12 -13 -13 -14 -14 -14 -14 -15
5 5 4 5 1 -1 -2 -2 -2 -2 -4 -5 -5 -7 -7 -7 -7 -8 -8 -8 -8 -8 -9 -9 -10 -8 -8 -9 -9 -9 -9 -9 -10 -11 -13 -13 -13 -14 -13 -13 -14 -15 -16 -16
5 1 -0 -1 -2 -2 -3 -4 -4 -5 -5 -6 -6 -7 -7 -7 -8 -8 -8 -8 -9 -9 -10 -10 -8 -8 -8 -8 -8 -8 -8 -9 -10 -12 -13 -13 -13 -13 -13 -14 -15 -13 -13 -16
-1 -2 -3 -3 -3 -4 -4 -5 -5 -5 -6 -6 -7 -6 -7 -8 -8 -8 -8 -8 -9 -10 -10 -10 -9 -8 -9 -9 -9 -9 -9 -10 -12 -13 -13 -14 -14 -14 -14 -15 -15 -16 -16 -15
-2 -2 -1 -3 -5 -5 -5 -5 -6 -6 -6 -6 -6 -7 -7 -8 -8 -8 -9 -9 -10 -10 -10 -10 -9 -9 -9 -9 -9 -9 -11 -12 -12 -13 -12 -13 -14 -15 -15 -15 -16 -17 -17 -17
-3 -3 -4 -5 -5 -6 -6 -5 -6 -6 -7 -7 -7 -7 -8 -8 -9 -9 -10 -10 -10 -10 -10 -9 -9 -9 -10 -10 -10 -10 -10 -11 -12 -13 -13 -13 -14 -15 -16 -16 -16 -17 -17 -15
-3 -4 -4 -5 -5 -6 -6 -5 -6 -7 -7 -7 -8 -8 -9 -9 -10 -10 -11 -10 -9 -9 -9 -10 -10 -10 -10 -10 -11 -12 -12 -12 -12 -13 -13 -13 -14 -15 -15 -16 -17 -18 -18 -16
-3 -2 -3 -4 -5 -6 -6 -6 -6 -7 -7 -8 -9 -9 -9 -9 -10 -9 -9 -9 -10 -10 -10 -11 -10 -10 -10 -11 -12 -12 -13 -12 -13 -13 -13 -14 -15 -15 -16 -16 -16 -18 -19 -18
-3 -4 -4 -5 -6 -6 -7 -7 -7 -7 -8 -8 -7 -8 -8 -8 -9 -10 -9 -9 -10 -10 -11 -11 -11 -11 -11 -11 -12 -12 -12 -13 -13 -13 -14 -14 -15 -16 -16 -16 -16 -17 -19 -19
-4 -5 -5 -6 -6 -7 -7 -7 -7 -7 -7 -7 -8 -8 -9 -9 -9 -11 -10 -10 -11 -11 -11 -11 -11 -11 -11 -12 -12 -13 -13 -13 -13 -14 -14 -15 -15 -16 -16 -16 -17 -17 -18 -18
-4 -5 -6 -6 -6 -6 -6 -6 -6 -7 -7 -7 -7 -8 -9 -9 -10 -11 -11 -12 -11 -11 -11 -12 -12 -12 -12 -12 -13 -13 -13 -14 -14 -14 -15 -15 -16 -16 -16 -17 -17 -17 -17 -18
-4 -5 -5 -6 -6 -6 -6 -6 -7 -7 -7 -8 -8 -8 -9 -10 -10 -12 -12 -11 -11 -11 -12 -12 -12 -12 -12 -12 -13 -13 -14 -14 -14 -15 -15 -15 -16 -17 -17 -17 -17 -18 -18 -18
-4 -5 -5 -5 -6 -6 -6 -7 -7 -7 -7 -7 -8 -8 -9 -10 -11 -13 -12 -12 -12 -12 -12 -12 -12 -13 -13 -13 -13 -14 -14 -14 -15 -15 -16 -16 -17 -17 -17 -17 -18 -18 -18 -18
-4 -5 -5 -5 -6 -6 -6 -6 -7 -7 -8 -8 -8 -9 -9 -10 -13 -13 -12 -12 -12 -12 -12 -13 -13 -13 -13 -14 -14 -14 -15 -15 -15 -16 -16 -16 -17 -17 -17 -18 -18 -18 -18 -18
-4 -5 -5 -5 -6 -6 -6 -6 -7 -8 -8 -9 -9 -10 -10 -11 -11 -12 -11 -12 -12 -13 -13 -13 -14 -13 -14 -14 -14 -15 -15 -15 -16 -16 -17 -17 -17 -18 -18 -18 -18 -18 -18 -19
-4 -5 -5 -5 -7 -6 -6 -7 -7 -8 -9 -9 -10 -10 -11 -11 -11 -11 -11 -12 -12 -13 -13 -14 -14 -14 -14 -14 -15 -15 -16 -16 -16 -17 -17 -17 -18 -18 -18 -18 -18 -19 -19 -19
-5 -5 -6 -6 -6 -6 -6 -7 -8 -8 -9 -9 -10 -11 -11 -11 -12 -11 -11 -12 -13 -13 -13 -14 -14 -14 -14 -15 -15 -15 -16 -16 -17 -17 -17 -18 -18 -18 -18 -18 -19 -19 -19 -19
Height
1480 1478 1478 1474 1471 1469 1467 1463 1468 1451 1453 1442 1447 1450 1457 1466 1469 1473 1479 1483 1485 1484 1487 1489 1489 1489 1488 1487 1485 1485 1484 1482 1479 1476 1474 1470 1465 1462 1459 1455 1450 1444 1438 1432
1478 1475 1473 1470 1463 1459 1457 1454 1452 1447 1441 1442 1447 1453 1458 1463 1469 1472 1476 1481 1482 1482 1485 1487 1488 1487 1487 1486 1485 1484 1483 1482 1480 1477 1474 1470 1467 1464 1461 1457 1452 1447 1440 1434
1477 1472 1474 1470 1448 1448 1442 1440 1443 1445 1435 1438 1444 1453 1457 1463 1467 1471 1476 1478 1480 1481 1483 1485 1486 1486 1486 1486 1485 1485 1483 1482 1480 1478 1475 1472 1468 1466 1463 1459 1455 1449 1442 1437
1474 1470 1469 1438 1443 1446 1441 1436 1436 1435 1435 1444 1448 1454 1458 1461 1465 1470 1474 1476 1478 1479 1481 1483 1485 1486 1486 1486 1486 1485 1484 1482 1481 1479 1476 1474 1471 1468 1465 1461 1456 1450 1445 1440
1475 1458 1446 1436 1439 1448 1448 1430 1430 1435 1436 1447 1453 1456 1461 1463 1465 1468 1471 1473 1475 1478 1480 1482 1484 1485 1486 1486 1486 1485 1484 1483 1482 1480 1478 1476 1473 1470 1466 1462 1458 1453 1448 1444
1463 1459 1451 1427 1438 1442 1444 1433 1428 1433 1437 1448 1451 1447 1450 1461 1463 1466 1469 1471 1474 1477 1480 1481 1483 1485 1486 1486 1486 1485 1485 1484 1482 1481 1480 1477 1475 1471 1468 1464 1461 1457 1453 1448
1453 1452 1432 1425 1437 1441 1440 1428 1433 1435 1439 1445 1447 1449 1452 1457 1462 1465 1467 1471 1474 1477 1479 1481 1483 1485 1486 1486 1486 1486 1486 1485 1483 1482 1480 1478 1476 1473 1470 1468 1465 1460 1456 1453
1445 1444 1433 1431 1439 1435 1431 1434 1437 1438 1441 1444 1447 1450 1453 1457 1461 1464 1467 1472 1475 1477 1479 1481 1482 1484 1485 1486 1486 1487 1487 1486 1484 1482 1481 1480 1478 1475 1473 1471 1468 1465 1461 1456
1434 1421 1431 1432 1431 1432 1432 1434 1437 1439 1442 1444 1446 1450 1453 1457 1461 1466 1469 1472 1475 1477 1478 1481 1483 1484 1485 1486 1487 1487 1488 1486 1485 1484 1483 1482 1480 1478 1477 1475 1471 1469 1465 1459
1432 1425 1430 1431 1433 1434 1434 1436 1437 1440 1441 1443 1445 1450 1453 1458 1462 1466 1469 1471 1474 1477 1479 1482 1483 1484 1486 1486 1487 1488 1488 1487 1486 1486 1484 1484 1484 1481 1479 1477 1474 1471 1467 1464
1424 1430 1431 1432 1431 1433 1433 1434 1435 1438 1440 1442 1445 1449 1453 1458 1462 1466 1468 1471 1475 1478 1481 1482 1483 1484 1486 1487 1488 1489 1489 1488 1488 1487 1487 1485 1483 1482 1482 1478 1475 1473 1471 1467
1415 1421 1421 1420 1424 1429 1430 1432 1435 1437 1439 1442 1445 1448 1454 1458 1462 1465 1468 1471 1475 1478 1480 1482 1483 1484 1486 1487 1488 1489 1489 1489 1489 1489 1488 1487 1487 1484 1481 1478 1476 1473 1471 1469
1418 1421 1422 1423 1424 1427 1428 1431 1434 1437 1439 1442 1447 1450 1455 1458 1461 1465 1468 1472 1475 1478 1480 1481 1483 1484 1486 1487 1488 1488 1489 1489 1489 1489 1488 1488 1487 1486 1485 1481 1477 1474 1471 1468
1419 1420 1424 1425 1424 1426 1429 1432 1435 1438 1442 1445 1448 1453 1456 1459 1462 1466 1470 1473 1475 1478 1481 1482 1483 1484 1486 1488 1488 1489 1489 1489 1489 1489 1489 1488 1487 1486 1486 1484 1482 1478 1473 1469
1419 1420 1421 1423 1424 1427 1430 1433 1436 1440 1444 1447 1451 1453 1457 1459 1463 1467 1470 1473 1475 1479 1481 1483 1484 1485 1486 1488 1489 1489 1489 1489 1489 1489 1488 1487 1487 1486 1485 1483 1482 1479 1474 1471
1418 1420 1421 1423 1425 1428 1431 1435 1438 1441 1444 1448 1451 1454 1457 1461 1463 1466 1470 1473 1475 1478 1480 1482 1484 1485 1487 1488 1489 1489 1489 1489 1489 1489 1488 1487 1487 1485 1484 1483 1481 1478 1474 1470
1418 1421 1423 1425 1426 1429 1432 1436 1439 1441 1444 1448 1451 1453 1457 1460 1463 1466 1469 1472 1475 1478 1480 1482 1484 1485 1487 1488 1489 1489 1489 1489 1489 1489 1488 1487 1486 1484 1483 1481 1480 1478 1475 1472
1418 1419 1421 1423 1426 1428 1432 1435 1439 1442 1445 1448 1449 1452 1455 1459 1462 1464 1468 1471 1475 1478 1480 1482 1484 1485 1487 1487 1488 1489 1489 1488 1488 1488 1487 1486 1486 1484 1482 1481 1479 1478 1476 1473
1417 1418 1420 1423 1426 1428 1432 1435 1438 1442 1444 1446 1448 1452 1456 1459 1462 1465 1469 1472 1475 1478 1480 1482 1484 1485 1486 1487 1488 1488 1488 1488 1487 1487 1486 1485 1484 1483 1482 1480 1478 1477 1475 1473
1417 1419 1420 1423 1426 1428 1432 1435 1437 1440 1443 1446 1449 1452 1455 1459 1462 1466 1470 1473 1476 1478 1480 1481 1483 1484 1485 1486 1487 1487 1487 1487 1486 1486 1485 1484 1484 1482 1481 1480 1478 1476 1475 1473
1416 1418 1420 1423 1426 1429 1432 1435 1437 1440 1443 1446 1449 1452 1455 1459 1462 1465 1469 1472 1475 1477 1479 1481 1482 1483 1484 1485 1486 1485 1485 1485 1485 1484 1484 1483 1483 1482 1481 1479 1478 1476 1475 1473
1417 1419 1421 1424 1427 1429 1432 1435 1438 1440 1443 1446 1449 1452 1455 1458 1461 1466 1469 1472 1474 1476 1478 1480 1481 1482 1483 1484 1484 1484 1484 1484 1483 1483 1482 1482 1482 1480 1479 1478 1477 1476 1474 1472
1418 1420 1423 1425 1428 1430 1433 1435 1438 1440 1442 1445 1448 1451 1454 1457 1460 1463 1467 1470 1473 1475 1477 1479 1480 1481 1482 1482 1482 1482 1482 1482 1482 1481 1481 1481 1480 1479 1478 1477 1476 1475 1473 1472
1419 1421 1424 1426 1428 1430 1432 1435 1437 1440 1442 1445 1448 1451 1453 1456 1460 1464 1466 1468 1471 1474 1475 1477 1478 1479 1480 1480 1480 1480 1480 1480 1480 1480 1480 1479 1479 1478 1477 1476 1475 1473 1472 1471
1420 1422 1424 1426 1428 1430 1432 1434 1436 1438 1441 1444 1447 1450 1453 1456 1459 1461 1464 1467 1470 1472 1474 1475 1476 1477 1477 1477 1478 1478 1478 1478 1478 1478 1478 1478 1477 1476 1475 1475 1473 1472 1471 1468
1419 1421 1423 1425 1427 1428 1430 1432 1434 1436 1439 1442 1445 1448 1451 1454 1457 1460 1463 1465 1468 1470 1472 1473 1474 1475 1475 1475 1476 1476 1476 1476 1476 1476 1476 1475 1475 1475 1474 1473 1472 1471 1469 1467
1417 1419 1421 1423 1424 1426 1428 1430 1432 1434 1437 1440 1443 1446 1449 1452 1456 1458 1461 1463 1465 1468 1469 1471 1471 1472 1473 1473 1473 1474 1474 1475 1475 1474 1474 1473 1473 1473 1472 1471 1470 1468 1467 1465
Wind_Speed
18 19 18 20 21 21 22 22 20 24 20 23 17 10 11 14 16 18 15 13 11 10 7 5 5 4 5 6 7 8 9 10 13 14 15 15 15 14 15 17 20 23 26 27
18 16 18 21 24 25 24 26 26 27 28 21 8 2 7 14 15 15 15 13 11 9 9 6 5 5 4 4 5 7 8 10 11 11 12 14 15 16 17 18 21 23 24 27
19 14 10 13 26 25 23 24 22 20 25 16 6 7 9 12 14 15 16 14 12 10 9 8 7 7 6 6 7 7 8 10 11 11 11 12 14 15 16 17 19 23 26 29
15 15 14 16 5 9 13 18 19 23 20 6 3 4 5 8 14 16 16 14 12 11 10 9 9 8 8 7 7 7 8 10 11 12 12 12 12 14 16 18 21 24 27 29
12 15 19 28 11 5 7 20 11 16 8 7 8 10 5 7 12 15 17 14 12 12 12 11 10 8 7 7 8 8 9 10 11 12 11 11 12 14 16 18 21 25 27 29
15 17 20 18 3 6 4 14 10 10 10 12 14 6 4 15 15 15 13 10 14 15 13 10 8 7 4 6 8 11 11 11 10 12 12 13 14 16 17 19 21 23 28 30
16 17 16 11 11 11 8 4 4 7 13 17 8 4 15 20 15 12 12 16 16 14 12 10 8 7 6 8 10 11 11 11 11 11 12 14 15 16 17 18 19 21 24 28
10 12 18 13 10 8 2 5 6 8 12 13 8 12 16 17 16 17 18 17 14 13 12 10 9 6 8 10 11 10 10 10 11 12 13 13 13 15 17 17 17 20 21 24
9 6 2 19 3 5 6 8 8 10 11 13 14 16 18 19 18 18 18 16 14 12 12 11 8 7 9 10 10 8 8 9 11 12 12 14 15 16 15 17 18 19 20 22
4 5 2 10 4 5 4 7 9 8 12 15 17 18 19 19 20 19 17 15 14 13 11 11 10 9 9 9 9 7 7 9 11 12 13 13 12 15 17 18 17 18 20 21
11 5 1 10 17 12 10 9 10 10 12 15 18 19 21 22 20 18 16 14 13 12 11 11 10 10 10 9 8 6 7 8 9 10 9 11 15 14 14 18 19 18 18 18
8 3 9 6 21 16 13 12 11 12 13 13 17 21 22 21 19 17 16 15 14 13 12 11 11 11 10 9 7 6 7 8 8 8 7 8 8 9 14 16 16 16 18 18
3 3 3 6 14 13 12 13 13 12 13 19 19 22 21 21 18 16 15 15 15 14 13 13 13 11 10 9 8 7 7 8 8 8 7 7 7 7 8 12 17 18 18 18
8 10 7 11 8 12 13 15 14 14 15 17 20 20 20 19 18 15 15 15 16 14 13 13 13 12 10 8 7 7 7 7 7 6 6 7 7 7 7 7 8 11 15 16
8 3 3 11 15 14 15 17 18 18 18 19 19 20 19 19 18 17 16 16 15 14 13 13 13 11 10 8 7 6 5 5 6 6 7 7 7 7 7 8 8 10 12 15
8 8 11 14 16 17 17 18 18 19 19 19 20 19 18 17 17 17 16 15 15 14 14 13 12 11 9 8 6 5 4 5 5 4 5 5 6 6 7 8 9 10 13 18
13 11 12 13 16 17 17 17 17 19 19 19 19 19 18 18 17 17 15 16 15 14 14 13 11 10 9 7 5 4 3 3 3 4 4 4 6 7 7 8 8 9 11 15
3 6 10 15 17 18 17 16 17 18 19 20 21 21 21 21 19 20 17 17 17 17 15 13 11 9 7 5 5 4 3 2 2 2 3 4 4 6 6 8 8 9 9 11
4 6 13 15 16 16 17 17 19 19 22 22 20 20 20 20 20 19 17 17 17 16 15 13 11 9 6 5 4 2 2 1 1 1 2 3 5 6 7 7 8 9 9 11
6 11 13 15 15 17 19 19 20 20 19 20 20 21 21 21 21 20 19 19 16 15 15 13 10 8 6 5 4 3 2 2 1 1 2 3 4 5 6 7 8 9 10 12
11 14 14 16 17 17 17 17 18 19 20 19 19 21 21 21 22 22 22 18 17 15 14 12 9 8 7 5 4 3 3 3 2 1 1 2 3 4 5 7 8 9 10 12
13 14 15 17 18 17 16 16 16 17 19 20 20 21 21 22 23 22 18 17 17 16 14 12 10 9 7 5 5 4 4 3 2 1 1 2 3 4 5 5 6 8 10 11
13 15 16 17 16 16 16 15 15 15 19 20 20 21 21 22 23 22 22 18 17 17 15 12 10 8 6 6 6 5 5 4 3 2 1 2 3 3 3 4 6 7 8 10
14 15 15 16 15 15 15 15 15 15 16 18 20 20 21 22 20 17 18 18 18 17 14 11 9 7 7 7 6 6 5 4 3 3 3 2 2 2 3 4 5 6 7 8
14 14 15 15 15 14 15 15 16 16 17 19 20 20 19 19 18 20 18 18 18 16 13 11 10 8 7 7 6 6 6 5 4 4 3 2 1 1 2 3 4 5 6 9
15 14 14 15 12 14 15 16 17 18 20 20 20 21 21 21 19 16 17 16 18 16 13 11 9 7 7 7 7 7 6 5 5 4 3 2 1 1 1 2 3 5 7 9
13 12 13 14 14 14 14 15 16 18 20 20 21 23 22 22 19 17 18 17 18 16 13 11 9 8 9 9 8 7 7 7 6 5 3 2 3 3 3 4 5 6 7 9
Wind_Direction
270 271 275 274 276 271 265 254 253 271 271 277 281 285 235 220 184 176 176 176 171 149 134 116 87 66 53 46 40 37 33 31 32 28 24 26 30 30 29 28 32 37 36 36
271 268 265 268 267 263 259 260 264 265 268 276 302 203 187 190 192 187 181 175 162 143 135 125 108 89 75 67 53 41 36 35 33 26 23 26 32 38 39 37 41 42 43 41
272 285 291 272 256 261 261 257 251 256 261 299 249 223 210 199 195 187 176 171 158 148 143 141 128 109 94 82 74 63 52 48 42 36 31 31 33 38 44 42 42 45 48 48
265 272 250 265 305 289 278 265 255 255 270 267 280 132 162 183 182 175 170 165 158 153 146 145 131 111 90 83 79 72 64 58 52 47 42 40 38 42 46 46 44 44 47 47
250 258 267 277 255 206 215 267 254 247 246 172 150 140 139 159 162 165 171 170 165 160 154 148 139 121 95 84 81 80 75 67 62 59 57 58 54 52 51 47 48 47 47 46
239 246 260 271 141 187 187 267 213 220 184 175 166 206 143 165 158 165 170 173 160 154 150 149 145 149 129 106 95 86 78 72 68 65 67 63 58 54 51 52 49 48 47 46
233 242 257 239 153 156 205 296 149 181 175 175 186 42 146 164 163 171 166 154 152 155 158 158 158 148 137 119 104 86 76 74 71 69 67 67 62 58 52 50 48 48 47 47
235 240 247 137 144 218 133 122 173 172 172 171 149 143 148 157 157 154 150 149 149 151 158 161 151 150 139 124 102 95 85 80 75 70 65 59 54 49 46 42 39 35 36 39
225 259 113 186 35 197 142 170 177 178 170 168 161 154 155 151 152 154 154 150 147 147 151 143 137 136 134 122 113 101 96 83 73 66 64 54 51 48 42 36 36 36 31 29
266 215 251 193 244 187 170 179 166 173 173 180 168 163 158 156 154 154 152 150 151 149 145 138 135 138 131 124 114 108 98 85 74 65 64 63 53 47 48 43 38 35 34 32
247 230 70 246 230 206 174 170 180 188 189 188 183 169 163 158 156 156 155 154 156 157 154 145 141 139 137 129 122 118 104 90 79 69 70 60 62 66 52 49 50 45 38 31
257 214 211 251 204 189 179 182 186 187 170 167 173 164 160 156 156 154 154 156 156 158 153 144 146 147 145 139 139 131 111 100 96 84 78 77 69 50 50 49 48 54 55 44
263 104 211 137 159 172 170 170 166 162 162 155 157 157 159 154 152 153 153 156 156 155 150 145 150 150 146 145 141 135 123 107 92 81 75 69 60 55 45 10 12 29 36 38
155 132 117 158 167 154 154 150 146 143 146 151 152 155 155 154 151 155 155 158 153 150 148 148 152 152 149 145 135 125 112 99 87 78 69 61 55 48 42 38 29 24 18 26
168 224 202 159 145 148 150 149 148 149 151 152 156 155 158 156 155 156 155 153 148 149 149 152 157 156 153 144 135 126 107 98 86 70 60 57 48 45 44 39 31 23 22 20
140 130 139 149 152 153 156 159 159 159 158 157 157 158 159 158 157 154 154 156 157 159 162 166 163 160 154 145 136 127 115 94 88 71 56 50 48 47 42 37 30 25 17 22
142 145 154 160 163 163 167 169 170 164 161 161 159 157 156 155 153 153 159 171 177 177 171 169 168 163 157 150 143 135 117 92 76 66 58 50 50 45 40 37 35 31 20 23
198 192 190 180 170 167 169 170 168 167 167 165 164 167 171 169 167 169 172 173 172 172 172 170 171 169 162 154 155 151 131 110 75 56 52 58 54 48 47 42 38 37 29 20
162 165 168 169 171 169 168 168 169 168 174 180 176 177 180 179 177 167 170 174 177 178 175 174 174 169 169 176 173 175 174 153 102 53 51 51 51 49 45 46 42 41 39 32
180 157 158 161 171 172 168 174 178 181 181 179 179 179 179 180 177 168 176 175 174 187 182 179 178 179 182 190 194 203 201 189 187 156 76 62 52 48 54 54 52 46 39 34
173 164 167 171 170 173 177 178 180 181 182 185 185 184 184 184 177 172 175 175 181 181 185 182 185 189 196 207 212 213 206 200 183 132 80 69 64 67 62 57 51 45 40 35
166 168 165 162 162 165 172 176 182 183 182 182 188 188 187 184 178 172 181 190 187 184 186 190 195 197 202 220 218 212 202 193 184 175 131 89 93 78 65 56 47 42 38 32
162 164 163 165 167 170 172 179 183 189 190 191 191 191 191 189 182 176 182 184 189 194 194 197 198 199 211 223 216 207 203 197 194 187 171 144 114 94 74 56 45 39 32 26
167 169 170 173 177 178 180 182 186 191 197 197 195 195 193 183 176 181 197 196 193 195 197 197 201 207 223 217 211 208 204 204 203 202 175 151 130 95 63 46 35 27 20 16
184 184 187 187 189 190 194 191 189 189 190 191 191 194 194 188 188 187 190 195 194 196 199 201 207 216 221 214 212 211 210 209 207 196 186 172 139 72 38 21 14 6 4 8
194 197 200 199 195 199 198 196 193 191 188 188 190 190 185 188 191 197 194 195 196 198 201 207 215 222 221 219 217 212 212 214 213 204 199 193 212 286 320 337 335 344 355 355
196 201 197 196 202 203 205 200 197 195 195 195 190 190 194 188 189 195 199 200 199 202 208 213 220 228 224 219 216 216 219 220 215 212 214 230 249 274 296 302 316 333 339 337